KAZEOSAT 1

Last updated on Thu Oct 30 2025 00:02:31 GMT+0000 (Coordinated Universal Time)

1 39731U 14024A 25302.52165421 .00000315 00000+0 10907-3 0 9990 2 39731 98.3479 15.4119 0001173 87.0714 273.0610 14.42022425605315
UTC large
Height (km)
Speed (km/s)
/
Latitude / Longitude
Inclination (degrees)
Orbital Period (minutes)
Azimuth
Elevation
Range (km)
Doppler Factor

Next 0 passes for location: London (51.5072 / 0.1276)

Sorry there are no passes over London.